OK1VCF-5 Weather Reports


time (UTC)temp
F
wind
direction
speed
knots
gust
knots
rain 1hr
in
rain 24hr
in
rain mn
in
humidity
%
barometer
mb
20260505052929 59 0 0.0 0.0 0.00 0.00 0.00 86 1013.2
20260505041427 54 0 0.0 0.0 0.00 0.00 0.00 93 1013.4
20260505035930 53 0 0.0 0.0 0.00 0.00 0.00
20260505035926 53 0 0.0 0.0 0.00 0.00 0.00 94 1013.4
20260505034425 52 0 0.0 0.0 0.00 0.00 0.00 94 1013.6
20260505032924 52 0 0.0 0.0 0.00 0.00 0.00 94 1013.7
20260505031445 52 0 0.0 0.0 0.00 0.00 0.00 94 1013.6
20260505031424 52 0 0.0 0.0 0.00 0.00 0.00 94 1013.6
20260505025923 54 0 0.0 0.0 0.00 0.00 0.00 94 1013.6
20260505024422 54 0 0.0 0.0 0.00 0.00 0.00 93 1013.7
20260505022921 54 0 0.0 0.0 0.00 0.00 0.00 93 1013.7
20260505021421 54 0 0.0 0.0 0.00 0.00 0.00 93 1013.9
20260505014451 0 0 0.0 0.0 0.00 0.00 0.00 92 1014.0
20260505014419 55 0 0.0 0.0 0.00 0.00 0.00 92 1014.0
20260505012918 55 0 0.0 0.0 0.00 0.00 0.00 92 1013.8
20260505011451 55 0 0.0 0.0 0.00 0.00 0.00 92 1014.0
20260505011418 55 0 0.0 0.0 0.00 0.00 0.00 92 1014.0
20260505005917 55 0 0.0 0.0 0.00 0.00 0.00 92 1014.0
20260505002918 56 0 0.0 0.0 0.00 0.00 0.00 91 1014.4
20260505002915 56 0 0.0 0.0 0.00 0.00 0.00 91 1014.4
20260505001415 56 0 0.0 0.0 0.00 0.00 0.00 88 1014.8
20260504235914 56 0 0.0 0.0 0.00 0.00 0.00 90 1014.7
20260504234415 56 0 0.0 0.0 0.00 0.00 0.00 91 1014.9
20260504232916 56 0 0.0 0.0 0.00 0.00 0.00 90 1015.0
20260504231412 56 0 0.0 0.0 0.00 0.00 0.00 90 1015.2
20260504225910 57 0 0.0 0.0 0.00 0.00 0.00 88 1015.1
20260504224409 58 0 0.0 0.0 0.00 0.00 0.00 88 1015.4
20260504223125 58 0 0.0 0.0 0.00 0.00 0.00 89 1015.5
20260504222909 58 0 0.0 0.0 0.00 0.00 0.00 89 1015.5
20260504221414 58 0 0.0 0.0 0.00 0.00 0.00 89 1016.2
20260504221408 58 0 0.0 0.0 0.00 0.00 0.00 89 1016.2
20260504215906 58 0 0.0 0.0 0.00 0.00 0.00 90 1016.2
20260504214406 60 0 0.0 0.0 0.00 0.00 0.00 84 1016.6
20260504213031 62 0 0.0 0.0 0.00 0.00 0.00 72 1016.3
20260504212906 62 0 0.0 0.0 0.00 0.00 0.00 72 1016.3
20260504211405 63 0 0.0 0.0 0.00 0.00 0.00 63 1016.1
20260504205907 62 0 0.0 0.0 0.00 0.00 0.00 60 1015.6
20260504204402 62 0 0.0 0.0 0.00 0.00 0.00 63 1015.6
20260504202903 62 0 0.0 0.0 0.00 0.00 0.00 63 1015.4
20260504201402 63 0 0.0 0.0 0.00 0.00 0.00 62 1015.4
20260504200244 64 0 0.0 0.0 0.00 0.00 0.00 60 1015.6
20260504195901 64 0 0.0 0.0 0.00 0.00 0.00 60 1015.6
20260504194400 64 0 0.0 0.0 0.00 0.00 0.00 60 1015.6
20260504192900 64 0 0.0 0.0 0.00 0.00 0.00 60 1015.6
20260504192859 64 0 0.0 0.0 0.00 0.00 0.00 60 1015.6
20260504191358 66 0 0.0 0.0 0.00 0.00 0.00 53 1015.5
20260504185859 66 0 0.0 0.0 0.00 0.00 0.00 1015.2
20260504184357 66 0 0.0 0.0 0.00 0.00 0.00 54 1015.3
20260504182856 67 0 0.0 0.0 0.00 0.00 0.00 53 1015.0
20260504181355 68 0 0.0 0.0 0.00 0.00 0.00 52 1015.0
20260504175855 69 0 0.0 0.0 0.00 0.00 0.00 50 1014.9
20260504174354 70 0 0.0 0.0 0.00 0.00 0.00 49 1015.0
20260504172853 71 0 0.0 0.0 0.00 0.00 0.00 47 1014.9
20260504171352 72 0 0.0 0.0 0.00 0.00 0.00 44 1015.0